Mattoon, IL

6:24 PM CDT on August 20, 2017 (GMT -0500)
Coles County Memorial

Weather History for KMTO - June, 2013

Change the Weather History Date:

Wednesday, June 19, 2013

  Actual Average Record
Temperature  
Mean Temperature 71 °F 73 °F  
Max Temperature 82 °F 83 °F 101 °F (1953)
Min Temperature 59 °F 63 °F 50 °F (2004)
Degree Days  
Heating Degree Days 0 0  
Month to date heating degree days 11 14  
Since 1 June heating degree days 11 14  
Since 1 July heating degree days 5387 5404  
Cooling Degree Days 6 8  
Month to date cooling degree days 103 119  
Year to date cooling degree days 212 207  
Since 1 June cooling degree days 103 119  
Growing Degree Days 20 (Base 50)    
Moisture  
Dew Point 64 °F    
Average Humidity 78    
Maximum Humidity 97    
Minimum Humidity 58    
Precipitation  
Precipitation 0.00 in 0.12 in 2.20 in (2015)
Month to date precipitation 2.30 2.80  
Year to date precipitation 24.95 17.15  
Sea Level Pressure  
Sea Level Pressure 30.04 in    
Wind  
Wind Speed 4 mph (ENE)    
Max Wind Speed 10 mph    
Max Gust Speed 13 mph    
Visibility 10 miles    
Events      
T = Trace of Precipitation, MM = Missing Value Source: NWS Daily Summary

Daily Weather History Graph

Daily Weather History Graph

Search for Another Location

Airport or City:

Trip Planner

Search our weather history database for the weather conditions in past years. The results will help you decide how hot, cold, wet, or windy it might be!

Date:

Astronomy

Jun. 19, 2013 Rise Set
Actual Time 5:25 AM CDT 8:23 PM CDT
Civil Twilight 4:53 AM CDT 8:55 PM CDT
Nautical Twilight 4:12 AM CDT 9:36 PM CDT
Astronomical Twilight 3:24 AM CDT 10:24 PM CDT
Moon 4:16 PM CDT (6/19) 2:09 AM CDT (6/19)
Length of Visible Light 16h 02m
Length of Day
14h 57m
Waxing Gibbous, 80% of the Moon is Illuminated
Jun 19
Waxing Gibbous
Jun 23
Full
Jun 29
Last Quarter
Jul 8
New
Jul 15
First Quarter

Hourly Weather History & Observations

Time (CDT) Temp. Heat Index Dew Point Humidity Pressure Visibility Wind Dir Wind Speed Gust Speed Precip Events Conditions
12:53 AM 64.0 °F - 62.1 °F 93% 29.98 in 10.0 mi North 4.6 mph - N/A   Clear
1:53 AM 63.0 °F - 60.1 °F 90% 29.99 in 10.0 mi North 5.8 mph - N/A   Clear
2:53 AM 61.0 °F - 59.0 °F 93% 30.00 in 10.0 mi North 3.5 mph - 0.01 in   Clear
3:53 AM 60.1 °F - 57.9 °F 93% 30.01 in 10.0 mi North 4.6 mph - N/A   Clear
4:53 AM 59.0 °F - 57.9 °F 96% 30.02 in 9.0 mi North 4.6 mph - N/A   Clear
5:53 AM 59.0 °F - 57.9 °F 96% 30.04 in 7.0 mi North 3.5 mph - N/A   Clear
6:53 AM 62.1 °F - 59.0 °F 90% 30.05 in 7.0 mi NNE 3.5 mph - N/A   Clear
7:53 AM 64.9 °F - 63.0 °F 93% 30.06 in 7.0 mi East 4.6 mph - N/A   Clear
8:53 AM 69.1 °F - 64.9 °F 87% 30.07 in 10.0 mi East 5.8 mph - N/A   Clear
9:53 AM 73.0 °F - 66.0 °F 79% 30.07 in 10.0 mi SE 3.5 mph - N/A   Clear
10:53 AM 75.0 °F - 66.0 °F 73% 30.07 in 10.0 mi Variable 5.8 mph - N/A   Clear
11:53 AM 77.0 °F - 64.9 °F 66% 30.07 in 10.0 mi Variable 3.5 mph - N/A   Scattered Clouds
12:53 PM 79.0 °F - 66.0 °F 64% 30.06 in 10.0 mi Variable 4.6 mph - N/A   Scattered Clouds
1:53 PM 78.1 °F - 64.0 °F 62% 30.05 in 10.0 mi Calm Calm - N/A   Mostly Cloudy
2:53 PM 79.0 °F - 64.0 °F 60% 30.04 in 10.0 mi East 4.6 mph - N/A   Partly Cloudy
3:53 PM 81.0 °F 82.5 °F 64.0 °F 56% 30.03 in 10.0 mi ESE 8.1 mph - N/A   Clear
4:53 PM 80.1 °F 81.9 °F 64.9 °F 60% 30.04 in 10.0 mi SSE 5.8 mph - N/A   Partly Cloudy
5:53 PM 80.1 °F 81.7 °F 64.0 °F 58% 30.03 in 10.0 mi ESE 8.1 mph - N/A   Clear
6:53 PM 79.0 °F - 64.9 °F 62% 30.04 in 10.0 mi SSE 4.6 mph - N/A   Mostly Cloudy
7:53 PM 75.0 °F - 68.0 °F 79% 30.03 in 10.0 mi Calm Calm - N/A   Clear
8:53 PM 72.0 °F - 66.9 °F 84% 30.04 in 10.0 mi Calm Calm - N/A   Clear
9:53 PM 71.1 °F - 68.0 °F 90% 30.06 in 10.0 mi Calm Calm - N/A   Clear
10:53 PM 69.1 °F - 68.0 °F 96% 30.07 in 9.0 mi Calm Calm - N/A   Clear
11:53 PM 68.0 °F - 66.9 °F 96% 30.08 in 8.0 mi SE 4.6 mph - N/A   Clear